Time,TemperatureF,DewpointF,PressureIn,WindDirection,WindDirectionDegrees,WindSpeedMPH,WindSpeedGustMPH,Humidity,HourlyPrecipIn,Conditions,Clouds,dailyrainin,SoftwareType,DateUTC
2013-02-04 00:00:00,53.8,35.1,30.02,NNE,27,2.0,2.0,49,0.00,,,0.00,Wunderground v.1.15,2013-02-04 08:00:00,
2013-02-04 00:05:00,53.8,35.1,30.01,NNE,27,1.0,2.0,49,0.00,,,0.00,Wunderground v.1.15,2013-02-04 08:05:00,
2013-02-04 00:15:00,53.6,33.8,30.01,NNE,27,0.0,0.0,47,0.00,,,0.00,Wunderground v.1.15,2013-02-04 08:15:00,
2013-02-04 00:20:00,53.6,33.3,30.01,NNE,27,0.0,2.0,46,0.00,,,0.00,Wunderground v.1.15,2013-02-04 08:20:00,
2013-02-04 00:30:00,53.5,33.2,30.01,NNE,27,0.0,0.0,46,0.00,,,0.00,Wunderground v.1.15,2013-02-04 08:30:00,
2013-02-04 00:35:00,53.5,33.7,30.01,NNE,27,0.0,0.0,47,0.00,,,0.00,Wunderground v.1.15,2013-02-04 08:35:00,
2013-02-04 00:45:00,53.3,34.1,30.01,NNE,27,0.0,0.0,48,0.00,,,0.00,Wunderground v.1.15,2013-02-04 08:45:00,
2013-02-04 00:55:00,53.1,34.4,30.00,NNE,27,0.0,0.0,49,0.00,,,0.00,Wunderground v.1.15,2013-02-04 08:55:00,
2013-02-04 01:00:00,52.9,33.7,30.00,NNE,27,1.0,3.0,48,0.00,,,0.00,Wunderground v.1.15,2013-02-04 09:00:00,
2013-02-04 01:10:00,52.9,34.2,30.00,NNE,27,1.0,1.0,49,0.00,,,0.00,Wunderground v.1.15,2013-02-04 09:10:00,
2013-02-04 01:20:00,53.1,33.4,30.00,NNE,27,0.0,0.0,47,0.00,,,0.00,Wunderground v.1.15,2013-02-04 09:20:00,
2013-02-04 01:25:00,53.1,34.4,30.00,NNE,27,0.0,0.0,49,0.00,,,0.00,Wunderground v.1.15,2013-02-04 09:25:00,
2013-02-04 01:35:00,53.2,34.5,30.00,NNE,27,0.0,0.0,49,0.00,,,0.00,Wunderground v.1.15,2013-02-04 09:35:00,
2013-02-04 01:45:00,52.9,34.2,30.00,NNE,27,0.0,0.0,49,0.00,,,0.00,Wunderground v.1.15,2013-02-04 09:45:00,
2013-02-04 01:50:00,52.8,34.2,30.00,NNE,27,1.0,1.0,49,0.00,,,0.00,Wunderground v.1.15,2013-02-04 09:50:00,
2013-02-04 02:00:00,52.5,35.4,30.00,NNE,27,0.0,0.0,52,0.00,,,0.00,Wunderground v.1.15,2013-02-04 10:00:00,
2013-02-04 02:10:00,52.0,35.9,30.01,NNE,27,0.0,0.0,54,0.00,,,0.00,Wunderground v.1.15,2013-02-04 10:10:00,
2013-02-04 02:20:00,51.7,36.5,30.01,NNE,27,0.0,0.0,56,0.00,,,0.00,Wunderground v.1.15,2013-02-04 10:20:00,
2013-02-04 02:30:00,51.3,37.0,30.01,NNE,27,1.0,1.0,58,0.00,,,0.00,Wunderground v.1.15,2013-02-04 10:30:00,
2013-02-04 02:40:00,51.0,37.2,30.01,NNE,27,0.0,0.0,59,0.00,,,0.00,Wunderground v.1.15,2013-02-04 10:40:00,
2013-02-04 02:45:00,51.0,35.8,30.01,NNE,27,0.0,0.0,56,0.00,,,0.00,Wunderground v.1.15,2013-02-04 10:45:00,
2013-02-04 02:55:00,51.3,36.1,30.01,NNE,27,0.0,1.0,56,0.00,,,0.00,Wunderground v.1.15,2013-02-04 10:55:00,
2013-02-04 03:05:00,51.1,36.4,30.01,NNE,27,0.0,0.0,57,0.00,,,0.00,Wunderground v.1.15,2013-02-04 11:05:00,
2013-02-04 03:10:00,51.0,35.4,30.01,NNE,27,1.0,1.0,55,0.00,,,0.00,Wunderground v.1.15,2013-02-04 11:10:00,
2013-02-04 03:20:00,51.4,35.8,30.01,NNE,27,2.0,2.0,55,0.00,,,0.00,Wunderground v.1.15,2013-02-04 11:20:00,
2013-02-04 03:30:00,51.6,36.4,30.01,NNE,27,1.0,1.0,56,0.00,,,0.00,Wunderground v.1.15,2013-02-04 11:30:00,
2013-02-04 03:40:00,51.6,36.4,30.00,NNE,27,0.0,2.0,56,0.00,,,0.00,Wunderground v.1.15,2013-02-04 11:40:00,
2013-02-04 03:50:00,51.7,36.9,29.99,NNE,27,1.0,1.0,57,0.00,,,0.00,Wunderground v.1.15,2013-02-04 11:50:00,
2013-02-04 03:55:00,51.7,36.5,29.99,NNE,27,1.0,1.0,56,0.00,,,0.00,Wunderground v.1.15,2013-02-04 11:55:00,
2013-02-04 04:05:00,51.6,35.5,29.99,NNE,27,0.0,1.0,54,0.00,,,0.00,Wunderground v.1.15,2013-02-04 12:05:00,
2013-02-04 04:15:00,51.4,33.4,29.99,NNE,27,1.0,1.0,50,0.00,,,0.00,Wunderground v.1.15,2013-02-04 12:15:00,
2013-02-04 04:25:00,51.6,32.0,30.00,NNE,27,0.0,0.0,47,0.00,,,0.00,Wunderground v.1.15,2013-02-04 12:25:00,
2013-02-04 04:35:00,51.6,33.0,30.00,NNE,27,0.0,0.0,49,0.00,,,0.00,Wunderground v.1.15,2013-02-04 12:35:00,
2013-02-04 04:45:00,51.6,32.0,30.00,NNE,27,1.0,1.0,47,0.00,,,0.00,Wunderground v.1.15,2013-02-04 12:45:00,
2013-02-04 04:50:00,51.7,33.1,29.99,NNE,27,1.0,1.0,49,0.00,,,0.00,Wunderground v.1.15,2013-02-04 12:50:00,
2013-02-04 05:00:00,51.3,32.3,29.99,NNE,27,0.0,0.0,48,0.00,,,0.00,Wunderground v.1.15,2013-02-04 13:00:00,
2013-02-04 05:05:00,51.3,33.3,30.00,NNE,27,0.0,0.0,50,0.00,,,0.00,Wunderground v.1.15,2013-02-04 13:05:00,
2013-02-04 05:10:00,51.3,32.8,30.00,NNE,27,0.0,0.0,49,0.00,,,0.00,Wunderground v.1.15,2013-02-04 13:10:00,
2013-02-04 05:20:00,51.3,33.3,30.01,NNE,27,0.0,0.0,50,0.00,,,0.00,Wunderground v.1.15,2013-02-04 13:20:00,
2013-02-04 05:30:00,51.3,32.8,30.01,NNE,27,0.0,0.0,49,0.00,,,0.00,Wunderground v.1.15,2013-02-04 13:30:00,
2013-02-04 05:40:00,51.1,32.6,30.01,NNE,27,1.0,1.0,49,0.00,,,0.00,Wunderground v.1.15,2013-02-04 13:40:00,
2013-02-04 05:50:00,51.1,33.1,30.01,NNE,27,0.0,0.0,50,0.00,,,0.00,Wunderground v.1.15,2013-02-04 13:50:00,
2013-02-04 05:55:00,51.1,32.6,30.01,NNE,27,0.0,0.0,49,0.00,,,0.00,Wunderground v.1.15,2013-02-04 13:55:00,
2013-02-04 06:05:00,51.3,32.8,30.02,NNE,27,0.0,1.0,49,0.00,,,0.00,Wunderground v.1.15,2013-02-04 14:05:00,
2013-02-04 06:15:00,51.3,33.3,30.02,NNE,27,0.0,0.0,50,0.00,,,0.00,Wunderground v.1.15,2013-02-04 14:15:00,
2013-02-04 06:25:00,51.1,32.6,30.02,NNE,27,0.0,0.0,49,0.00,,,0.00,Wunderground v.1.15,2013-02-04 14:25:00,
2013-02-04 06:35:00,51.1,32.6,30.03,NNE,27,0.0,0.0,49,0.00,,,0.00,Wunderground v.1.15,2013-02-04 14:35:00,
2013-02-04 06:40:00,51.1,32.6,30.03,NNE,27,0.0,0.0,49,0.00,,,0.00,Wunderground v.1.15,2013-02-04 14:40:00,
2013-02-04 06:50:00,51.3,33.3,30.03,NNE,27,0.0,0.0,50,0.00,,,0.00,Wunderground v.1.15,2013-02-04 14:50:00,
2013-02-04 06:55:00,51.3,32.3,30.03,NNE,27,0.0,2.0,48,0.00,,,0.00,Wunderground v.1.15,2013-02-04 14:55:00,
2013-02-04 07:05:00,51.9,31.7,30.03,NNE,27,2.0,2.0,46,0.00,,,0.00,Wunderground v.1.15,2013-02-04 15:05:00,
2013-02-04 07:10:00,52.3,33.2,30.03,NNE,27,1.0,1.0,48,0.00,,,0.00,Wunderground v.1.15,2013-02-04 15:10:00,
2013-02-04 07:15:00,52.3,34.2,30.03,NNE,27,0.0,1.0,50,0.00,,,0.00,Wunderground v.1.15,2013-02-04 15:15:00,
2013-02-04 07:25:00,52.6,35.5,30.04,NNE,27,0.0,0.0,52,0.00,,,0.00,Wunderground v.1.15,2013-02-04 15:25:00,
2013-02-04 07:30:00,52.9,36.2,30.04,NNE,27,0.0,1.0,53,0.00,,,0.00,Wunderground v.1.15,2013-02-04 15:30:00,
2013-02-04 07:35:00,53.3,36.6,30.03,NNE,27,0.0,1.0,53,0.00,,,0.00,Wunderground v.1.15,2013-02-04 15:35:00,
2013-02-04 07:45:00,54.4,37.6,30.03,NNE,27,0.0,1.0,53,0.00,,,0.00,Wunderground v.1.15,2013-02-04 15:45:00,
2013-02-04 07:50:00,54.8,37.5,30.03,NNE,27,0.0,0.0,52,0.00,,,0.00,Wunderground v.1.15,2013-02-04 15:50:00,
2013-02-04 07:55:00,55.1,36.8,30.03,NNE,27,0.0,0.0,50,0.00,,,0.00,Wunderground v.1.15,2013-02-04 15:55:00,
2013-02-04 08:05:00,55.9,37.5,30.04,NNE,27,0.0,0.0,50,0.00,,,0.00,Wunderground v.1.15,2013-02-04 16:05:00,
2013-02-04 08:10:00,56.0,35.5,30.04,NNE,27,0.0,0.0,46,0.00,,,0.00,Wunderground v.1.15,2013-02-04 16:10:00,
2013-02-04 08:15:00,56.2,34.0,30.04,NNE,27,0.0,0.0,43,0.00,,,0.00,Wunderground v.1.15,2013-02-04 16:15:00,
2013-02-04 08:25:00,57.0,34.1,30.05,NNE,27,0.0,0.0,42,0.00,,,0.00,Wunderground v.1.15,2013-02-04 16:25:00,
2013-02-04 08:35:00,58.4,34.8,30.05,NNE,27,0.0,0.0,41,0.00,,,0.00,Wunderground v.1.15,2013-02-04 16:35:00,
2013-02-04 08:40:00,59.2,36.1,30.05,NNE,27,0.0,0.0,42,0.00,,,0.00,Wunderground v.1.15,2013-02-04 16:40:00,
2013-02-04 08:45:00,59.8,36.0,30.05,NNE,27,0.0,0.0,41,0.00,,,0.00,Wunderground v.1.15,2013-02-04 16:45:00,
2013-02-04 08:50:00,60.5,36.0,30.05,NNE,27,0.0,0.0,40,0.00,,,0.00,Wunderground v.1.15,2013-02-04 16:50:00,
2013-02-04 09:00:00,61.5,36.9,30.05,NNE,27,0.0,0.0,40,0.00,,,0.00,Wunderground v.1.15,2013-02-04 17:00:00,
2013-02-04 09:05:00,61.8,36.6,30.05,NNE,27,0.0,0.0,39,0.00,,,0.00,Wunderground v.1.15,2013-02-04 17:05:00,
2013-02-04 09:15:00,62.1,36.2,30.05,SSW,194,0.0,1.0,38,0.00,,,0.00,Wunderground v.1.15,2013-02-04 17:15:00,
2013-02-04 09:25:00,62.3,37.7,30.06,SSW,194,0.0,0.0,40,0.00,,,0.00,Wunderground v.1.15,2013-02-04 17:25:00,
2013-02-04 09:35:00,62.7,38.0,30.06,SSW,194,0.0,0.0,40,0.00,,,0.00,Wunderground v.1.15,2013-02-04 17:35:00,
2013-02-04 09:40:00,63.1,38.4,30.06,SSW,194,0.0,0.0,40,0.00,,,0.00,Wunderground v.1.15,2013-02-04 17:40:00,
2013-02-04 09:50:00,63.4,36.7,30.06,ESE,119,1.0,1.0,37,0.00,,,0.00,Wunderground v.1.15,2013-02-04 17:50:00,
2013-02-04 10:00:00,63.4,37.3,30.06,ESE,119,1.0,1.0,38,0.00,,,0.00,Wunderground v.1.15,2013-02-04 18:00:00,
2013-02-04 10:06:00,63.2,37.2,30.06,SE,142,1.0,1.0,38,0.00,,,0.00,Wunderground v.1.15,2013-02-04 18:06:00,
2013-02-04 10:15:00,62.9,38.2,30.06,SE,136,2.0,4.0,40,0.00,,,0.00,Wunderground v.1.15,2013-02-04 18:15:00,
2013-02-04 10:25:00,63.1,37.7,30.06,ESE,103,1.0,1.0,39,0.00,,,0.00,Wunderground v.1.15,2013-02-04 18:25:00,
2013-02-04 10:30:00,63.2,38.5,30.06,South,184,0.0,3.0,40,0.00,,,0.00,Wunderground v.1.15,2013-02-04 18:30:00,
2013-02-04 10:40:00,63.5,37.4,30.06,SSE,167,1.0,1.0,38,0.00,,,0.00,Wunderground v.1.15,2013-02-04 18:40:00,
2013-02-04 10:45:00,63.7,37.6,30.06,South,186,0.0,1.0,38,0.00,,,0.00,Wunderground v.1.15,2013-02-04 18:45:00,
2013-02-04 10:55:00,64.0,37.2,30.06,South,186,1.0,2.0,37,0.00,,,0.00,Wunderground v.1.15,2013-02-04 18:55:00,
2013-02-04 11:05:00,64.5,37.6,30.05,South,187,1.0,3.0,37,0.00,,,0.00,Wunderground v.1.15,2013-02-04 19:05:00,
2013-02-04 11:10:00,64.7,37.1,30.05,South,183,1.0,1.0,36,0.00,,,0.00,Wunderground v.1.15,2013-02-04 19:10:00,
2013-02-04 11:20:00,65.3,37.6,30.05,SSW,192,1.0,2.0,36,0.00,,,0.00,Wunderground v.1.15,2013-02-04 19:20:00,
2013-02-04 11:30:00,65.6,37.2,30.05,South,178,1.0,2.0,35,0.00,,,0.00,Wunderground v.1.15,2013-02-04 19:30:00,
2013-02-04 11:35:00,66.0,38.3,30.04,SSE,166,1.0,2.0,36,0.00,,,0.00,Wunderground v.1.15,2013-02-04 19:35:00,
2013-02-04 11:45:00,66.3,38.5,30.04,SSW,206,1.0,2.0,36,0.00,,,0.00,Wunderground v.1.15,2013-02-04 19:45:00,
2013-02-04 11:55:00,66.4,43.2,30.03,South,183,1.0,1.0,43,0.00,,,0.00,Wunderground v.1.15,2013-02-04 19:55:00,
2013-02-04 12:00:00,66.8,40.4,30.03,ESE,106,1.0,1.0,38,0.00,,,0.00,Wunderground v.1.15,2013-02-04 20:00:00,
2013-02-04 12:10:00,67.3,39.4,30.02,South,185,1.0,2.0,36,0.00,,,0.00,Wunderground v.1.15,2013-02-04 20:10:00,
2013-02-04 12:15:00,67.6,39.7,30.02,South,185,1.0,2.0,36,0.00,,,0.00,Wunderground v.1.15,2013-02-04 20:15:00,
2013-02-04 12:25:00,68.9,37.8,30.01,WSW,252,1.0,2.0,32,0.00,,,0.00,Wunderground v.1.15,2013-02-04 20:25:00,
2013-02-04 12:35:00,69.3,37.3,30.00,NW,317,0.0,1.0,31,0.00,,,0.00,Wunderground v.1.15,2013-02-04 20:35:00,
2013-02-04 12:45:00,68.9,37.0,30.00,SW,217,1.0,2.0,31,0.00,,,0.00,Wunderground v.1.15,2013-02-04 20:45:00,
2013-02-04 12:55:00,69.8,38.6,29.99,SE,137,1.0,1.0,32,0.00,,,0.00,Wunderground v.1.15,2013-02-04 20:55:00,
2013-02-04 13:05:00,69.3,41.2,29.98,ESE,106,2.0,3.0,36,0.00,,,0.00,Wunderground v.1.15,2013-02-04 21:05:00,
2013-02-04 13:15:00,70.1,43.3,29.98,South,191,2.0,2.0,38,0.00,,,0.00,Wunderground v.1.15,2013-02-04 21:15:00,
2013-02-04 13:25:00,69.8,43.0,29.98,SE,128,2.0,3.0,38,0.00,,,0.00,Wunderground v.1.15,2013-02-04 21:25:00,
2013-02-04 13:30:00,68.9,41.5,29.98,East,100,2.0,4.0,37,0.00,,,0.00,Wunderground v.1.15,2013-02-04 21:30:00,
2013-02-04 13:40:00,68.6,42.6,29.98,ESE,109,2.0,5.0,39,0.00,,,0.00,Wunderground v.1.15,2013-02-04 21:40:00,
2013-02-04 13:45:00,68.1,42.9,29.98,ESE,119,3.0,5.0,40,0.00,,,0.00,Wunderground v.1.15,2013-02-04 21:45:00,
2013-02-04 13:55:00,68.4,43.1,29.97,ESE,107,2.0,4.0,40,0.00,,,0.00,Wunderground v.1.15,2013-02-04 21:55:00,
2013-02-04 14:05:00,68.1,44.1,29.96,ESE,121,2.0,3.0,42,0.00,,,0.00,Wunderground v.1.15,2013-02-04 22:05:00,
2013-02-04 14:15:00,68.6,43.9,29.96,ESE,110,2.0,2.0,41,0.00,,,0.00,Wunderground v.1.15,2013-02-04 22:15:00,
2013-02-04 14:20:00,68.4,45.0,29.96,South,175,1.0,1.0,43,0.00,,,0.00,Wunderground v.1.15,2013-02-04 22:20:00,
2013-02-04 14:25:00,68.9,43.6,29.96,ESE,114,2.0,2.0,40,0.00,,,0.00,Wunderground v.1.15,2013-02-04 22:25:00,
2013-02-04 14:35:00,69.3,44.6,29.96,ESE,114,2.0,4.0,41,0.00,,,0.00,Wunderground v.1.15,2013-02-04 22:35:00,
2013-02-04 14:40:00,69.1,45.0,29.96,ESE,117,2.0,2.0,42,0.00,,,0.00,Wunderground v.1.15,2013-02-04 22:40:00,
2013-02-04 14:45:00,68.9,44.9,29.96,SE,126,2.0,2.0,42,0.00,,,0.00,Wunderground v.1.15,2013-02-04 22:45:00,
2013-02-04 14:50:00,68.9,45.5,29.95,SE,132,2.0,2.0,43,0.00,,,0.00,Wunderground v.1.15,2013-02-04 22:50:00,
2013-02-04 15:00:00,68.9,45.5,29.95,ESE,119,2.0,3.0,43,0.00,,,0.00,Wunderground v.1.15,2013-02-04 23:00:00,
2013-02-04 15:10:00,68.8,46.6,29.96,SE,128,2.0,2.0,45,0.00,,,0.00,Wunderground v.1.15,2013-02-04 23:10:00,
2013-02-04 15:20:00,68.3,46.1,29.96,ESE,107,1.0,3.0,45,0.00,,,0.00,Wunderground v.1.15,2013-02-04 23:20:00,
2013-02-04 15:30:00,67.9,46.9,29.96,South,178,1.0,1.0,47,0.00,,,0.00,Wunderground v.1.15,2013-02-04 23:30:00,
2013-02-04 15:40:00,67.8,46.8,29.96,South,185,1.0,3.0,47,0.00,,,0.00,Wunderground v.1.15,2013-02-04 23:40:00,
2013-02-04 15:50:00,66.9,47.6,29.96,SSE,150,1.0,1.0,50,0.00,,,0.00,Wunderground v.1.15,2013-02-04 23:50:00,
2013-02-04 16:00:00,66.6,47.4,29.96,SE,129,1.0,1.0,50,0.00,,,0.00,Wunderground v.1.15,2013-02-05 00:00:00,
2013-02-04 16:10:00,66.1,46.4,29.96,SSE,157,1.0,1.0,49,0.00,,,0.00,Wunderground v.1.15,2013-02-05 00:10:00,
2013-02-04 16:15:00,66.0,44.6,29.96,ESE,112,1.0,1.0,46,0.00,,,0.00,Wunderground v.1.15,2013-02-05 00:15:00,
2013-02-04 16:20:00,66.0,45.2,29.96,ESE,112,1.0,1.0,47,0.00,,,0.00,Wunderground v.1.15,2013-02-05 00:20:00,
2013-02-04 16:30:00,65.6,44.3,29.96,ESE,123,1.0,2.0,46,0.00,,,0.00,Wunderground v.1.15,2013-02-05 00:30:00,
2013-02-04 16:35:00,65.5,44.2,29.96,ESE,123,0.0,2.0,46,0.00,,,0.00,Wunderground v.1.15,2013-02-05 00:35:00,
2013-02-04 16:45:00,65.2,43.9,29.96,ESE,123,0.0,0.0,46,0.00,,,0.00,Wunderground v.1.15,2013-02-05 00:45:00,
2013-02-04 16:50:00,64.8,43.5,29.96,ESE,111,0.0,0.0,46,0.00,,,0.00,Wunderground v.1.15,2013-02-05 00:50:00,
2013-02-04 17:00:00,64.3,43.1,29.96,ESE,109,1.0,1.0,46,0.00,,,0.00,Wunderground v.1.15,2013-02-05 01:00:00,
2013-02-04 17:05:00,64.0,41.0,29.96,ESE,109,0.0,1.0,43,0.00,,,0.00,Wunderground v.1.15,2013-02-05 01:05:00,
2013-02-04 17:15:00,63.5,41.8,29.96,ESE,109,0.0,0.0,45,0.00,,,0.00,Wunderground v.1.15,2013-02-05 01:15:00,
2013-02-04 17:25:00,63.1,42.0,29.96,ESE,109,0.0,0.0,46,0.00,,,0.00,Wunderground v.1.15,2013-02-05 01:25:00,
2013-02-04 17:30:00,62.7,43.3,29.96,ESE,109,0.0,0.0,49,0.00,,,0.00,Wunderground v.1.15,2013-02-05 01:30:00,
2013-02-04 17:35:00,62.3,44.4,29.96,ESE,109,0.0,0.0,52,0.00,,,0.00,Wunderground v.1.15,2013-02-05 01:35:00,
2013-02-04 17:40:00,61.8,44.5,29.96,ESE,109,0.0,0.0,53,0.00,,,0.00,Wunderground v.1.15,2013-02-05 01:40:00,
2013-02-04 17:45:00,61.5,44.7,29.96,ESE,109,0.0,0.0,54,0.00,,,0.00,Wunderground v.1.15,2013-02-05 01:45:00,
2013-02-04 17:55:00,60.9,45.6,29.96,ESE,109,0.0,2.0,57,0.00,,,0.00,Wunderground v.1.15,2013-02-05 01:55:00,
2013-02-04 18:05:00,59.9,44.6,29.97,ESE,109,0.0,0.0,57,0.00,,,0.00,Wunderground v.1.15,2013-02-05 02:05:00,
2013-02-04 18:15:00,59.3,44.5,29.97,ESE,109,0.0,0.0,58,0.00,,,0.00,Wunderground v.1.15,2013-02-05 02:15:00,
2013-02-04 18:25:00,58.9,44.6,29.98,East,99,0.0,0.0,59,0.00,,,0.00,Wunderground v.1.15,2013-02-05 02:25:00,
2013-02-04 18:35:00,58.4,45.0,29.98,East,99,0.0,0.0,61,0.00,,,0.00,Wunderground v.1.15,2013-02-05 02:35:00,
2013-02-04 18:45:00,57.8,45.3,29.98,East,99,0.0,0.0,63,0.00,,,0.00,Wunderground v.1.15,2013-02-05 02:45:00,
2013-02-04 18:50:00,57.5,45.4,29.98,ENE,78,0.0,1.0,64,0.00,,,0.00,Wunderground v.1.15,2013-02-05 02:50:00,
2013-02-04 19:00:00,57.0,45.3,29.98,ENE,78,0.0,0.0,65,0.00,,,0.00,Wunderground v.1.15,2013-02-05 03:00:00,
2013-02-04 19:10:00,56.6,45.8,30.00,ENE,76,1.0,1.0,67,0.00,,,0.00,Wunderground v.1.15,2013-02-05 03:10:00,
2013-02-04 19:20:00,56.5,45.7,30.00,ENE,75,1.0,1.0,67,0.00,,,0.00,Wunderground v.1.15,2013-02-05 03:20:00,
2013-02-04 19:30:00,56.3,45.5,30.00,ENE,75,0.0,0.0,67,0.00,,,0.00,Wunderground v.1.15,2013-02-05 03:30:00,
2013-02-04 19:35:00,56.2,45.4,30.00,ENE,75,0.0,0.0,67,0.00,,,0.00,Wunderground v.1.15,2013-02-05 03:35:00,
2013-02-04 19:40:00,55.9,45.1,30.00,ENE,75,0.0,3.0,67,0.00,,,0.00,Wunderground v.1.15,2013-02-05 03:40:00,
2013-02-04 19:50:00,55.6,44.4,30.01,NE,48,1.0,2.0,66,0.00,,,0.00,Wunderground v.1.15,2013-02-05 03:50:00,
2013-02-04 19:55:00,55.4,43.4,30.01,NE,48,1.0,2.0,64,0.00,,,0.00,Wunderground v.1.15,2013-02-05 03:55:00,
2013-02-04 20:05:00,55.3,44.5,30.02,NE,48,1.0,1.0,67,0.00,,,0.00,Wunderground v.1.15,2013-02-05 04:05:00,
2013-02-04 20:10:00,55.0,43.4,30.02,NE,48,1.0,2.0,65,0.00,,,0.00,Wunderground v.1.15,2013-02-05 04:10:00,
2013-02-04 20:20:00,55.1,43.9,30.01,NE,44,1.0,2.0,66,0.00,,,0.00,Wunderground v.1.15,2013-02-05 04:20:00,
2013-02-04 20:30:00,55.0,43.0,30.01,NE,44,1.0,1.0,64,0.00,,,0.00,Wunderground v.1.15,2013-02-05 04:30:00,
2013-02-04 20:35:00,54.8,42.9,30.01,NE,44,1.0,1.0,64,0.00,,,0.00,Wunderground v.1.15,2013-02-05 04:35:00,
2013-02-04 20:45:00,54.5,42.2,30.01,NE,44,2.0,3.0,63,0.00,,,0.00,Wunderground v.1.15,2013-02-05 04:45:00,
2013-02-04 20:55:00,54.7,42.8,30.02,NE,44,1.0,2.0,64,0.00,,,0.00,Wunderground v.1.15,2013-02-05 04:55:00,
2013-02-04 21:00:00,54.5,41.3,30.02,NE,44,1.0,1.0,61,0.00,,,0.00,Wunderground v.1.15,2013-02-05 05:00:00,
2013-02-04 21:05:00,54.4,40.8,30.02,NE,44,1.0,1.0,60,0.00,,,0.00,Wunderground v.1.15,2013-02-05 05:05:00,
2013-02-04 21:10:00,54.2,40.6,30.02,NE,44,1.0,1.0,60,0.00,,,0.00,Wunderground v.1.15,2013-02-05 05:10:00,
2013-02-04 21:20:00,54.1,40.9,30.02,NE,44,1.0,1.0,61,0.00,,,0.00,Wunderground v.1.15,2013-02-05 05:20:00,
2013-02-04 21:30:00,53.9,42.0,30.02,NE,44,0.0,0.0,64,0.00,,,0.00,Wunderground v.1.15,2013-02-05 05:30:00,
2013-02-04 21:35:00,53.8,41.9,30.03,NE,44,0.0,0.0,64,0.00,,,0.00,Wunderground v.1.15,2013-02-05 05:35:00,
2013-02-04 21:45:00,53.6,42.9,30.03,NE,44,1.0,2.0,67,0.00,,,0.00,Wunderground v.1.15,2013-02-05 05:45:00,
2013-02-04 21:50:00,53.5,43.2,30.03,NE,44,2.0,2.0,68,0.00,,,0.00,Wunderground v.1.15,2013-02-05 05:50:00,
2013-02-04 22:00:00,53.5,43.6,30.03,NE,44,0.0,0.0,69,0.00,,,0.00,Wunderground v.1.15,2013-02-05 06:00:00,
2013-02-04 22:10:00,53.2,44.0,30.03,NE,44,0.0,0.0,71,0.00,,,0.00,Wunderground v.1.15,2013-02-05 06:10:00,
2013-02-04 22:20:00,53.2,44.8,30.02,NE,44,0.0,0.0,73,0.00,,,0.00,Wunderground v.1.15,2013-02-05 06:20:00,
2013-02-04 22:25:00,53.1,45.0,30.02,NE,44,0.0,0.0,74,0.00,,,0.00,Wunderground v.1.15,2013-02-05 06:25:00,
2013-02-04 22:30:00,52.8,44.4,30.02,NE,44,1.0,1.0,73,0.00,,,0.00,Wunderground v.1.15,2013-02-05 06:30:00,
2013-02-04 22:35:00,52.5,44.1,30.02,NE,44,1.0,1.0,73,0.00,,,0.00,Wunderground v.1.15,2013-02-05 06:35:00,
2013-02-04 22:45:00,52.0,44.0,30.02,NE,44,0.0,1.0,74,0.00,,,0.00,Wunderground v.1.15,2013-02-05 06:45:00,
2013-02-04 22:55:00,51.6,43.9,30.02,NE,44,0.0,0.0,75,0.00,,,0.00,Wunderground v.1.15,2013-02-05 06:55:00,
2013-02-04 23:00:00,51.4,43.7,30.02,NE,44,0.0,0.0,75,0.00,,,0.00,Wunderground v.1.15,2013-02-05 07:00:00,
2013-02-04 23:10:00,51.1,43.8,30.02,NE,44,0.0,0.0,76,0.00,,,0.00,Wunderground v.1.15,2013-02-05 07:10:00,
2013-02-04 23:15:00,50.8,43.2,30.02,NE,44,0.0,0.0,75,0.00,,,0.00,Wunderground v.1.15,2013-02-05 07:15:00,
2013-02-04 23:25:00,50.7,43.1,30.02,NE,44,0.0,0.0,75,0.00,,,0.00,Wunderground v.1.15,2013-02-05 07:25:00,
2013-02-04 23:35:00,50.5,42.9,30.02,NE,44,0.0,0.0,75,0.00,,,0.00,Wunderground v.1.15,2013-02-05 07:35:00,
2013-02-04 23:40:00,50.5,42.5,30.02,NE,44,0.0,0.0,74,0.00,,,0.00,Wunderground v.1.15,2013-02-05 07:40:00,
2013-02-04 23:50:00,50.4,42.4,30.02,NE,44,0.0,0.0,74,0.00,,,0.00,Wunderground v.1.15,2013-02-05 07:50:00,